Overview Statistics Trail Chart Weather Telemetry Raw packets
 

This is the latest recevied weather packets stored in our database for station/object KA1JKB. If no packets are shown the sender has not sent any weather packets the latest 10 day(s).

<< 86 87 88 89 90 91 92 >>
Time Temp. Humidity Pressure Rain* Wind** Luminosity Snow
1787806656 14.44° C 99% 1010.3 hPa 0 mm - 0 W/m² -
1787806353 15° C 99% 1010.2 hPa 0 mm - 0 W/m² -
1787806051 15° C 99% 1010.2 hPa 0 mm - 0 W/m² -
1787805747 15.56° C 99% 1010.3 hPa 0 mm - 0 W/m² -
1787805442 15.56° C 99% 1010.1 hPa 0 mm - 0 W/m² -
1787805138 15.56° C 99% 1010.1 hPa 0 mm - 0 W/m² -
1787804837 15.56° C 99% 1010.2 hPa 0 mm - 0 W/m² -
1787804532 15.56° C 99% 1010.3 hPa 0 mm - 0 W/m² -
1787804232 15.56° C 99% 1010 hPa 0 mm - 0 W/m² -
1787803927 15.56° C 99% 1010.2 hPa 0 mm - 0 W/m² -
1787803626 15° C 99% 1010.3 hPa 0 mm - 0 W/m² -
1787803326 15° C 99% 1010.1 hPa 0 mm - 0 W/m² -
1787803021 15° C 99% 1010.1 hPa 0 mm - 0 W/m² -
1787802720 15° C 99% 1010.1 hPa 0 mm - 0 W/m² -
1787802415 15° C 99% 1009.8 hPa 0 mm - 0 W/m² -
1787802114 15.56° C 99% 1010.2 hPa 0 mm - 0 W/m² -
1787801810 16.11° C 99% 1010 hPa 0 mm - 0 W/m² -
1787801505 16.11° C 99% 1009.8 hPa 0 mm - 0 W/m² -
1787801205 16.67° C 99% 1010 hPa 0 mm - 0 W/m² -
1787800903 16.67° C 99% 1009.9 hPa 0 mm - 0 W/m² -
1787800598 16.67° C 99% 1009.9 hPa 0 mm - 0 W/m² -
1787800298 16.67° C 99% 1010 hPa 0 mm - 0 W/m² -
1787799994 16.67° C 99% 1009.7 hPa 0 mm - 0 W/m² -
1787799696 16.67° C 99% 1010 hPa 0 mm - 0 W/m² -
1787799389 16.11° C 99% 1010 hPa 0 mm - 0 W/m² -

* Rain latest hour (hover to see other rain measurements)
** Current wind speed in m/s (hover to see current wind gust speed)